FW5313 Weather Reports


Display with metric or nautical units.
time (UTC)temp
F
wind
direction
speed
MPH
gust
MPH
rain 1hr
in
rain 24hr
in
rain mn
in
humidity
%
barometer
mb
20260831024607 61 0 0.0 1.0 0.00 0.00 0.00 89 1018.6
20260831024046 62 0 0.0 1.0 0.00 0.00 0.00 89 1018.5
20260831023545 62 0 0.0 0.0 0.00 0.00 0.00 90 1018.5
20260831023107 62 0 0.0 1.0 0.00 0.00 0.00 90 1018.5
20260831022546 62 0 0.0 1.0 0.00 0.00 0.00 89 1018.5
20260831022046 62 0 0.0 1.0 0.00 0.00 0.00 89 1018.6
20260831021558 62 0 0.0 1.0 0.00 0.00 0.00 89 1018.5
20260831021046 62 0 0.0 1.0 0.00 0.00 0.00 90 1018.5
20260831020546 62 0 0.0 1.0 0.00 0.00 0.00 90 1018.5
20260831020113 62 0 0.0 0.0 0.00 0.00 0.00 89 1018.4
20260831015546 62 0 0.0 0.0 0.00 0.00 0.00 89 1018.3
20260831015045 62 0 0.0 0.0 0.00 0.00 0.00 89 1018.3
20260831014559 62 0 0.0 0.0 0.00 0.00 0.00 90 1018.3
20260831014047 62 0 0.0 0.0 0.00 0.00 0.00 89 1018.1
20260831013547 62 0 0.0 1.0 0.00 0.00 0.00 89 1018.1
20260831013100 62 0 0.0 1.0 0.00 0.00 0.00 89 1018.0
20260831012547 62 0 0.0 0.0 0.00 0.00 0.00 89 1018.0
20260831012046 62 0 0.0 2.0 0.00 0.00 0.00 89 1017.9
20260831011607 62 0 0.0 2.0 0.00 0.00 0.00 88 1017.7
20260831011047 62 146 0.0 2.0 0.00 0.00 0.00 88 1017.7
20260831010547 62 98 0.0 1.0 0.00 0.00 0.00 90 1017.6
20260831005549 62 0 0.0 2.0 0.00 0.00 0.00 90 1017.6
20260831005047 62 0 0.0 2.0 0.00 0.00 0.00 90 1017.6
20260831004602 62 77 0.0 1.0 0.00 0.00 0.00 89 1017.5
20260831004049 62 0 0.0 1.0 0.00 0.00 0.00 90 1017.5
20260831003545 62 0 0.0 1.0 0.00 0.00 0.00 90 1017.4
20260831003102 62 0 0.0 1.0 0.00 0.00 0.00 90 1017.3
20260831002546 62 0 0.0 0.0 0.00 0.00 0.00 90 1017.4
20260831002045 62 0 0.0 2.0 0.00 0.00 0.00 90 1017.3
20260831001604 62 0 0.0 2.0 0.00 0.00 0.00 90 1017.2
20260831001046 61 56 0.0 1.0 0.00 0.00 0.00 90 1017.0
20260831000546 62 0 0.0 1.0 0.00 0.00 0.00 90 1016.9
20260831000104 62 0 0.0 3.0 0.00 0.00 0.00 90 1016.9
20260830235546 62 48 0.0 5.0 0.00 0.00 0.00 91 1016.7
20260830235048 61 0 0.0 5.0 0.00 0.00 0.00 91 1016.5
20260830234612 61 0 1.0 5.0 0.00 0.00 0.00 91 1016.6
20260830234049 61 178 0.0 0.0 0.00 0.00 0.00 92 1016.7
20260830233545 61 0 0.0 0.0 0.00 0.00 0.00 91 1016.5
20260830233057 61 0 0.0 0.0 0.00 0.00 0.00 91 1016.5
20260830232545 61 0 0.0 0.0 0.00 0.00 0.00 91 1016.5
20260830232045 61 0 0.0 1.0 0.00 0.00 0.00 91 1016.5
20260830231602 62 0 0.0 1.0 0.00 0.00 0.00 91 1016.5
20260830231047 62 186 0.0 0.0 0.00 0.00 0.00 91 1016.3
20260830230545 62 0 0.0 0.0 0.00 0.00 0.00 90 1016.4
20260830230100 62 0 0.0 0.0 0.00 0.00 0.00 90 1016.6
20260830225545 62 0 0.0 0.0 0.00 0.00 0.00 89 1016.9
20260830225045 63 0 0.0 1.0 0.00 0.00 0.00 89 1016.7
20260830224608 63 186 0.0 1.0 0.00 0.00 0.00 88 1016.8
20260830224045 63 0 0.0 1.0 0.00 0.00 0.00 87 1016.8
20260830223545 64 0 0.0 0.0 0.00 0.00 0.00 86 1016.9
20260830223058 64 0 0.0 0.0 0.00 0.00 0.00 85 1016.8
20260830222545 64 0 0.0 0.0 0.00 0.00 0.00 84 1016.6
20260830222046 64 0 0.0 0.0 0.00 0.00 0.00 83 1016.5
20260830221603 65 0 0.0 0.0 0.00 0.00 0.00 82 1016.4
20260830221045 65 0 0.0 0.0 0.00 0.00 0.00 82 1016.4
20260830220545 65 0 0.0 0.0 0.00 0.00 0.00 81 1016.2
20260830220114 65 0 0.0 0.0 0.00 0.00 0.00 80 1016.3
20260830215546 65 0 0.0 0.0 0.00 0.00 0.00 81 1016.2
20260830215045 65 0 0.0 0.0 0.00 0.00 0.00 81 1016.1
20260830214555 66 0 0.0 1.0 0.00 0.00 0.00 80 1016.2
20260830214045 66 158 0.0 1.0 0.00 0.00 0.00 80 1016.3
20260830213545 66 162 0.0 0.0 0.00 0.00 0.00 80 1016.4
20260830213125 66 162 0.0 0.0 0.00 0.00 0.00 79 1016.3
20260830212546 66 0 0.0 3.0 0.00 0.00 0.00 79 1016.5
20260830212047 66 0 0.0 3.0 0.00 0.00 0.00 79 1016.3
20260830211603 66 152 0.0 3.0 0.00 0.00 0.00 78 1016.4
20260830211045 66 0 0.0 3.0 0.00 0.00 0.00 79 1016.5
20260830210546 66 0 0.0 3.0 0.00 0.00 0.00 76 1016.4
20260830205545 66 0 0.0 0.0 0.00 0.00 0.00 77 1016.5
20260830205046 66 0 0.0 1.0 0.00 0.00 0.00 76 1016.4
20260830204611 67 0 0.0 1.0 0.00 0.00 0.00 79 1016.4
20260830204050 66 0 0.0 1.0 0.00 0.00 0.00 79 1016.3
20260830203546 66 0 0.0 1.0 0.00 0.00 0.00 79 1016.2
20260830203109 66 0 0.0 2.0 0.00 0.00 0.00 78 1016.3
20260830202547 66 0 0.0 2.0 0.00 0.00 0.00 78 1016.2
20260830202049 66 0 0.0 2.0 0.00 0.00 0.00 76 1016.6
20260830201604 66 0 0.0 1.0 0.00 0.00 0.00 78 1016.5
20260830201045 66 0 0.0 1.0 0.00 0.00 0.00 79 1016.5
20260830200546 66 81 0.0 1.0 0.00 0.00 0.00 78 1016.5
20260830200057 66 0 0.0 5.0 0.00 0.00 0.00 79 1016.6
20260830195547 66 0 0.0 5.0 0.00 0.00 0.00 79 1016.4
20260830195050 66 82 0.0 1.0 0.00 0.00 0.00 78 1016.7
20260830194605 66 0 0.0 1.0 0.00 0.00 0.00 77 1016.7
20260830194045 66 0 0.0 0.0 0.00 0.00 0.00 79 1016.9
20260830193544 66 0 0.0 0.0 0.00 0.00 0.00 78 1017.0
20260830193101 66 0 0.0 0.0 0.00 0.00 0.00 78 1016.9
20260830192545 66 0 0.0 0.0 0.00 0.00 0.00 79 1016.8
20260830192045 66 0 0.0 0.0 0.00 0.00 0.00 77 1017.0
20260830191559 66 0 0.0 0.0 0.00 0.00 0.00 79 1017.0
20260830191046 66 0 0.0 1.0 0.00 0.00 0.00 79 1017.1
20260830190547 66 0 0.0 2.0 0.00 0.00 0.00 78 1017.0
20260830190104 66 95 0.0 2.0 0.00 0.00 0.00 77 1017.2
20260830185546 66 98 0.0 1.0 0.00 0.00 0.00 77 1017.2
20260830185046 66 0 0.0 1.0 0.00 0.00 0.00 77 1017.2
20260830184606 66 0 0.0 1.0 0.00 0.00 0.00 81 1017.4
20260830184045 66 0 0.0 1.0 0.00 0.00 0.00 78 1017.4
20260830183545 66 0 0.0 1.0 0.00 0.00 0.00 78 1017.4
20260830183103 66 0 0.0 1.0 0.00 0.00 0.00 79 1017.6
20260830182545 66 0 0.0 1.0 0.00 0.00 0.00 76 1017.6
20260830182045 66 98 0.0 1.0 0.00 0.00 0.00 77 1017.7
20260830181604 66 0 0.0 1.0 0.00 0.00 0.00 78 1017.8
20260830181049 66 0 0.0 5.0 0.00 0.00 0.00 76 1017.8
20260830180544 65 0 1.0 5.0 0.00 0.00 0.00 73 1017.8
20260830180106 65 69 0.0 1.0 0.00 0.00 0.00 79 1018.0
20260830175545 65 0 0.0 1.0 0.00 0.00 0.00 79 1018.0
20260830175044 65 0 0.0 1.0 0.00 0.00 0.00 79 1018.0
20260830174604 65 0 0.0 1.0 0.00 0.00 0.00 78 1018.0
20260830174049 66 0 0.0 1.0 0.00 0.00 0.00 80 1018.0
20260830173549 66 69 0.0 1.0 0.00 0.00 0.00 80 1018.0
20260830173059 66 0 0.0 1.0 0.00 0.00 0.00 80 1018.1
20260830172545 66 0 0.0 1.0 0.00 0.00 0.00 81 1018.2
20260830172046 66 0 0.0 1.0 0.00 0.00 0.00 79 1018.4
20260830171554 66 0 0.0 1.0 0.00 0.00 0.00 82 1018.4
20260830171049 66 0 0.0 2.0 0.00 0.00 0.00 80 1018.4
20260830170548 66 0 0.0 2.0 0.00 0.00 0.00 79 1018.5
20260830165547 65 0 0.0 3.0 0.00 0.00 0.00 81 1018.5
20260830165045 65 0 0.0 3.0 0.00 0.00 0.00 80 1018.5
20260830164602 65 0 0.0 1.0 0.00 0.00 0.00 80 1018.7
20260830164047 65 121 0.0 1.0 0.00 0.00 0.00 81 1018.9
20260830163548 65 117 0.0 1.0 0.00 0.00 0.00 83 1019.0
20260830163108 65 0 0.0 1.0 0.00 0.00 0.00 82 1019.2
20260830162544 65 116 0.0 1.0 0.00 0.00 0.00 81 1019.0
20260830162044 65 139 0.0 1.0 0.00 0.00 0.00 81 1018.8
20260830161620 65 0 0.0 1.0 0.00 0.00 0.00 81 1018.9
20260830161045 65 0 0.0 0.0 0.00 0.00 0.00 82 1018.9
20260830160549 65 0 0.0 0.0 0.00 0.00 0.00 84 1018.9
20260830160107 65 0 0.0 0.0 0.00 0.00 0.00 82 1018.9
20260830155545 65 0 0.0 0.0 0.00 0.00 0.00 82 1018.7
20260830155046 65 0 0.0 0.0 0.00 0.00 0.00 83 1018.8
20260830154603 65 0 0.0 1.0 0.00 0.00 0.00 81 1018.9
20260830154046 65 0 0.0 1.0 0.00 0.00 0.00 80 1018.7
20260830153545 65 0 0.0 1.0 0.00 0.00 0.00 82 1018.6
20260830153102 65 0 0.0 1.0 0.00 0.00 0.00 81 1018.6
20260830152547 65 0 0.0 1.0 0.00 0.00 0.00 82 1019.0
20260830152045 65 0 0.0 1.0 0.00 0.00 0.00 82 1018.9
20260830151612 65 212 0.0 1.0 0.00 0.00 0.00 83 1019.2
20260830151046 65 0 0.0 1.0 0.00 0.00 0.00 82 1019.4
20260830150546 65 292 0.0 3.0 0.00 0.00 0.00 79 1019.3
20260830150101 65 0 0.0 3.0 0.00 0.00 0.00 82 1019.3
20260830145546 65 160 0.0 3.0 0.00 0.00 0.00 79 1019.4
20260830145045 65 46 0.0 3.0 0.00 0.00 0.00 82 1019.5
20260830144618 65 49 0.0 3.0 0.00 0.00 0.00 82 1019.4
20260830144046 65 49 0.0 3.0 0.00 0.00 0.00 80 1019.1
20260830143546 65 0 0.0 2.0 0.00 0.00 0.00 82 1019.3
20260830143109 65 0 0.0 2.0 0.00 0.00 0.00 82 1019.3
20260830142548 65 356 0.0 2.0 0.00 0.00 0.00 79 1019.2
20260830142046 65 0 0.0 1.0 0.00 0.00 0.00 82 1019.4
20260830141559 65 55 0.0 2.0 0.00 0.00 0.00 81 1019.5
20260830141046 66 0 0.0 2.0 0.00 0.00 0.00 80 1019.5
20260830140546 66 0 0.0 2.0 0.00 0.00 0.00 80 1019.6
20260830140057 66 0 0.0 1.0 0.00 0.00 0.00 82 1019.4
20260830135548 65 0 0.0 1.0 0.00 0.00 0.00 82 1019.3
20260830135047 65 0 0.0 1.0 0.00 0.00 0.00 82 1019.2
20260830134559 65 0 0.0 1.0 0.00 0.00 0.00 79 1019.2
20260830134046 64 0 0.0 1.0 0.00 0.00 0.00 82 1019.3
20260830133543 64 0 0.0 1.0 0.00 0.00 0.00 82 1019.2
20260830133057 64 0 0.0 0.0 0.00 0.00 0.00 82 1019.2
20260830132546 65 0 0.0 2.0 0.00 0.00 0.00 82 1019.2
20260830132043 65 0 0.0 2.0 0.00 0.00 0.00 81 1019.2
20260830131607 64 0 0.0 0.0 0.00 0.00 0.00 82 1019.3
20260830131046 64 0 0.0 2.0 0.00 0.00 0.00 81 1019.2
20260830130546 64 0 0.0 2.0 0.00 0.00 0.00 82 1019.1
20260830130114 63 0 0.0 1.0 0.00 0.00 0.00 82 1019.1
20260830125545 63 41 0.0 1.0 0.00 0.00 0.00 82 1019.2
20260830125045 63 0 0.0 1.0 0.00 0.00 0.00 82 1019.2
20260830124601 63 0 0.0 1.0 0.00 0.00 0.00 83 1019.2
20260830124046 63 0 0.0 1.0 0.00 0.00 0.00 82 1019.3
20260830123546 63 0 0.0 1.0 0.00 0.00 0.00 82 1019.4
20260830123058 63 0 0.0 1.0 0.00 0.00 0.00 81 1019.3
20260830122546 62 0 0.0 1.0 0.00 0.00 0.00 83 1019.3
20260830122050 62 0 0.0 1.0 0.00 0.00 0.00 83 1019.3
20260830121604 62 0 0.0 0.0 0.00 0.00 0.00 82 1019.3
20260830121043 61 0 0.0 0.0 0.00 0.00 0.00 83 1019.3
20260830120548 61 0 0.0 1.0 0.00 0.00 0.00 82 1019.3
20260830120101 61 0 0.0 1.0 0.00 0.00 0.00 81 1019.2
20260830115543 61 0 0.0 1.0 0.00 0.00 0.00 84 1019.3
20260830115043 61 0 0.0 1.0 0.00 0.00 0.00 81 1019.3
20260830114614 60 0 0.0 1.0 0.00 0.00 0.00 81 1019.2
20260830114046 60 0 0.0 1.0 0.00 0.00 0.00 82 1019.4
20260830113546 60 0 0.0 1.0 0.00 0.00 0.00 82 1019.3
20260830113055 60 41 0.0 0.0 0.00 0.00 0.00 81 1019.4
20260830112545 60 0 0.0 0.0 0.00 0.00 0.00 82 1019.4
20260830112048 60 0 0.0 0.0 0.00 0.00 0.00 82 1019.5
20260830111600 60 0 0.0 0.0 0.00 0.00 0.00 84 1019.5
20260830111045 60 0 0.0 0.0 0.00 0.00 0.00 84 1019.5
20260830110545 60 0 0.0 0.0 0.00 0.00 0.00 82 1019.5
20260830105545 60 0 0.0 1.0 0.00 0.00 0.00 81 1019.5
20260830105045 60 0 0.0 1.0 0.00 0.00 0.00 79 1019.4
20260830104556 60 0 0.0 1.0 0.00 0.00 0.00 79 1019.5
20260830104045 60 0 0.0 1.0 0.00 0.00 0.00 80 1019.4
20260830103548 60 0 0.0 1.0 0.00 0.00 0.00 78 1019.5
20260830103100 60 0 0.0 1.0 0.00 0.00 0.00 78 1019.5
20260830102544 60 112 0.0 0.0 0.00 0.00 0.00 79 1019.5
20260830102049 60 0 0.0 0.0 0.00 0.00 0.00 80 1019.3
20260830101608 60 0 0.0 1.0 0.00 0.00 0.00 79 1019.3
20260830101045 60 0 0.0 1.0 0.00 0.00 0.00 79 1019.3
20260830100545 60 0 0.0 1.0 0.00 0.00 0.00 80 1019.5
20260830100116 60 0 0.0 1.0 0.00 0.00 0.00 80 1019.4
20260830095547 60 0 0.0 0.0 0.00 0.00 0.00 80 1019.2
20260830095044 60 0 0.0 0.0 0.00 0.00 0.00 80 1019.2
20260830094611 60 0 0.0 1.0 0.00 0.00 0.00 78 1019.2
20260830094048 60 0 0.0 1.0 0.00 0.00 0.00 80 1019.3
20260830093546 60 0 0.0 1.0 0.00 0.00 0.00 79 1019.3
20260830093100 60 0 0.0 1.0 0.00 0.00 0.00 78 1019.2
20260830092546 60 0 0.0 1.0 0.00 0.00 0.00 79 1019.3
20260830092045 60 0 0.0 1.0 0.00 0.00 0.00 79 1019.2
20260830091559 60 0 0.0 2.0 0.00 0.00 0.00 80 1019.4
20260830091045 60 82 0.0 2.0 0.00 0.00 0.00 80 1019.4
20260830090620 59 82 0.0 2.0 0.00 0.00 0.00 80 1019.5
20260830090107 59 0 0.0 2.0 0.00 0.00 0.00 82 1019.6
20260830085545 59 0 0.0 2.0 0.00 0.00 0.00 81 1019.7
20260830085049 59 0 0.0 1.0 0.00 0.00 0.00 81 1019.5
20260830084602 59 39 0.0 0.0 0.00 0.00 0.00 79 1019.6
20260830084046 59 0 0.0 1.0 0.00 0.00 0.00 80 1019.5
20260830083547 59 0 0.0 1.0 0.00 0.00 0.00 78 1019.5
20260830083106 59 39 0.0 1.0 0.00 0.00 0.00 79 1019.5
20260830082547 59 0 0.0 2.0 0.00 0.00 0.00 79 1019.5
20260830082046 59 0 1.0 2.0 0.00 0.00 0.00 78 1019.6
20260830081637 59 35 0.0 1.0 0.00 0.00 0.00 78 1019.5
20260830081050 59 0 0.0 1.0 0.00 0.00 0.00 81 1019.5
20260830080545 59 0 0.0 2.0 0.00 0.00 0.00 78 1019.5
20260830075545 60 0 0.0 1.0 0.00 0.00 0.00 79 1019.6
20260830075045 60 21 0.0 1.0 0.00 0.00 0.00 80 1019.8
20260830074608 60 0 0.0 1.0 0.00 0.00 0.00 77 1019.6
20260830074045 60 0 0.0 1.0 0.00 0.00 0.00 79 1019.6
20260830073546 60 21 0.0 1.0 0.00 0.00 0.00 77 1019.8
20260830073103 60 0 0.0 1.0 0.00 0.00 0.00 80 1019.7
20260830072545 60 0 0.0 1.0 0.00 0.00 0.00 80 1019.8
20260830072045 60 0 0.0 0.0 0.00 0.00 0.00 79 1019.8
20260830071605 60 0 0.0 1.0 0.00 0.00 0.00 80 1019.8
20260830071044 60 0 0.0 1.0 0.00 0.00 0.00 79 1019.8
20260830070544 60 338 0.0 1.0 0.00 0.00 0.00 77 1019.8
20260830065548 60 0 0.0 1.0 0.00 0.00 0.00 80 1019.8
20260830065045 60 0 0.0 1.0 0.00 0.00 0.00 80 1019.7
20260830064600 60 0 0.0 0.0 0.00 0.00 0.00 80 1019.8
20260830064045 60 0 0.0 0.0 0.00 0.00 0.00 79 1019.9
20260830063545 60 0 0.0 0.0 0.00 0.00 0.00 80 1019.8
20260830063132 60 0 0.0 1.0 0.00 0.00 0.00 79 1019.8
20260830062547 60 0 0.0 1.0 0.00 0.00 0.00 80 1019.8
20260830062044 60 0 0.0 3.0 0.00 0.00 0.00 78 1019.9
20260830061558 60 0 0.0 3.0 0.00 0.00 0.00 77 1019.9
20260830061044 60 35 0.0 3.0 0.00 0.00 0.00 76 1019.9
20260830060545 60 0 0.0 1.0 0.00 0.00 0.00 78 1019.9
20260830055545 60 0 0.0 1.0 0.00 0.00 0.00 78 1020.0
20260830055045 60 117 0.0 1.0 0.00 0.00 0.00 79 1020.1
20260830054558 60 0 0.0 1.0 0.00 0.00 0.00 79 1020.1
20260830054042 60 0 0.0 0.0 0.00 0.00 0.00 79 1020.3
20260830053542 60 0 0.0 1.0 0.00 0.00 0.00 78 1020.3
20260830053106 60 0 0.0 1.0 0.00 0.00 0.00 79 1020.3
20260830052545 60 0 0.0 3.0 0.00 0.00 0.00 79 1020.2
20260830052049 60 0 0.0 3.0 0.00 0.00 0.00 77 1020.4
20260830051607 60 0 0.0 1.0 0.00 0.00 0.00 78 1020.3
20260830051047 59 0 0.0 0.0 0.00 0.00 0.00 80 1020.3
20260830050547 59 0 0.0 0.0 0.00 0.00 0.00 80 1020.3
20260830050107 59 0 0.0 0.0 0.00 0.00 0.00 79 1020.4
20260830045543 59 0 0.0 0.0 0.00 0.00 0.00 78 1020.4
20260830045045 59 0 0.0 0.0 0.00 0.00 0.00 76 1020.4
20260830044612 59 0 0.0 0.0 0.00 0.00 0.00 76 1020.5
20260830044043 59 0 0.0 0.0 0.00 0.00 0.00 76 1020.4
20260830043545 59 0 0.0 0.0 0.00 0.00 0.00 79 1020.4
20260830043113 59 0 0.0 0.0 0.00 0.00 0.00 79 1020.4
20260830042544 59 0 0.0 0.0 0.00 0.00 0.00 76 1020.4
20260830042046 58 0 0.0 0.0 0.00 0.00 0.00 75 1020.4
20260830041624 58 0 0.0 0.0 0.00 0.00 0.00 76 1020.4
20260830041042 58 0 0.0 0.0 0.00 0.00 0.00 76 1020.5
20260830040542 58 0 0.0 0.0 0.00 0.00 0.00 78 1020.5
20260830040119 58 0 0.0 0.0 0.00 0.00 0.00 80 1020.4
20260830035542 57 0 0.0 0.0 0.00 0.00 0.00 80 1020.4
20260830035044 57 0 0.0 1.0 0.00 0.00 0.00 81 1020.4
20260830034610 57 0 0.0 1.0 0.00 0.00 0.00 80 1020.3
20260830034046 57 0 0.0 0.0 0.00 0.00 0.00 82 1020.3
20260830033547 57 0 0.0 0.0 0.00 0.00 0.00 82 1020.3
20260830033115 57 0 0.0 0.0 0.00 0.00 0.00 83 1020.3
20260830032545 57 0 0.0 0.0 0.00 0.00 0.00 83 1020.3
20260830032042 57 0 0.0 0.0 0.00 0.00 0.00 83 1020.4
20260830031555 57 0 0.0 0.0 0.00 0.00 0.00 84 1020.4
20260830031042 57 0 0.0 0.0 0.00 0.00 0.00 83 1020.3
20260830030543 57 0 0.0 0.0 0.00 0.00 0.00 83 1020.4
20260830025544 56 0 0.0 0.0 0.00 0.00 0.00 84 1020.4
20260830025042 56 0 0.0 0.0 0.00 0.00 0.00 85 1020.4